Weather History for LEJR - April, 2013

Change the Weather History Date:

Saturday, April 20, 2013

  Actual Average Record
Temperature  
Mean Temperature 66 °F -  
Max Temperature 78 °F 74 °F 80 °F (2002)
Min Temperature 55 °F 51 °F 44 °F (2004)
Cooling Degree Days 2    
Growing Degree Days 16 (Base 50)    
Moisture  
Dew Point 55 °F    
Average Humidity 66    
Maximum Humidity 94    
Minimum Humidity 32    
Precipitation  
Precipitation 0.00 in 0.06 in - ()
Sea Level Pressure  
Sea Level Pressure 30.04 in    
Wind  
Wind Speed 4 mph ()    
Max Wind Speed 13 mph    
Max Gust Speed 20 mph    
Visibility 12.0 miles    
Events      
Averages and records for this station are not official NWS values.
T = Trace of Precipitation, MM = Missing Value Source: Averaged Metar Reports

Daily Weather History Graph

Daily Weather History Graph

Search for Another Location

Airport or City:

Trip Planner

Search our weather history database for the weather conditions in past years. The results will help you decide how hot, cold, wet, or windy it might be!

Date:

Astronomy

Apr. 20, 2013 Rise Set
Actual Time 7:43 AM CEST 9:03 PM CEST
Civil Twilight 7:16 AM CEST 9:30 PM CEST
Nautical Twilight 6:44 AM CEST 10:02 PM CEST
Astronomical Twilight 6:10 AM CEST 10:36 PM CEST
Moon 3:41 PM CEST (4/20) 4:16 AM CEST (4/20)
Length of Visible Light 14h 13m
Length of Day
13h 19m
Waxing Gibbous, 68% of the Moon is Illuminated
Apr 20
Waxing Gibbous
Apr 25
Full
May 2
Last Quarter
May 10
New
May 18
First Quarter

Hourly Weather History & Observations

Time (CEST) Temp. Dew Point Humidity Pressure Visibility Wind Dir Wind Speed Gust Speed Precip Events Conditions
2:00 AM 62 °F 59 °F 87% 30.05 in 12 mi South 9.2 mph - -  
5:00 AM 60.8 °F 57.2 °F 88% 30.04 in - ESE 3.5 mph - N/A   Clear
5:30 AM 57.2 °F 55.4 °F 94% 30.04 in - Calm Calm - N/A   Clear
6:00 AM 57.2 °F 55.4 °F 94% 30.04 in - Calm Calm - N/A   Clear
6:30 AM 57.2 °F 55.4 °F 94% 30.04 in - Calm Calm - N/A   Clear
7:00 AM 57.2 °F 53.6 °F 88% 30.04 in - Calm Calm - N/A   Clear
7:30 AM 55.4 °F 53.6 °F 94% 30.04 in - Variable 1.2 mph - N/A   Clear
8:00 AM 56 °F 53 °F 88% 30.06 in 25 mi NE 2.3 mph - -   Clear
8:00 AM 55.4 °F 51.8 °F 88% 30.04 in - Variable 2.3 mph - N/A   Clear
8:30 AM 57.2 °F 53.6 °F 88% 30.04 in - Calm Calm - N/A   Clear
9:00 AM 60.8 °F 55.4 °F 82% 30.06 in - Calm Calm - N/A   Clear
9:30 AM 62.6 °F 55.4 °F 77% 30.06 in - Variable 1.2 mph - N/A   Clear
10:00 AM 66.2 °F 55.4 °F 68% 30.06 in - Calm Calm - N/A   Clear
10:30 AM 66.2 °F 53.6 °F 64% 30.06 in - Variable 2.3 mph - N/A   Clear
11:00 AM 68.0 °F 55.4 °F 64% 30.06 in - Variable 1.2 mph - N/A   Clear
11:30 AM 69.8 °F 55.4 °F 60% 30.06 in - Variable 2.3 mph - N/A   Clear
12:00 PM 71.6 °F 53.6 °F 53% 30.06 in - SSW 3.5 mph - N/A   Clear
12:30 PM 71.6 °F 53.6 °F 53% 30.09 in - Variable 2.3 mph - N/A   Clear
1:00 PM 73.4 °F 55.4 °F 53% 30.06 in - Variable 1.2 mph - N/A   Clear
1:30 PM 75.2 °F 55.4 °F 50% 30.06 in - SSW 6.9 mph - N/A   Clear
2:00 PM 78 °F 53 °F 32% 30.07 in 22 mi South 2.3 mph - -   Clear
2:00 PM 75.2 °F 55.4 °F 50% 30.06 in - SSW 3.5 mph - N/A   Clear
2:30 PM 77.0 °F 59.0 °F 54% 30.06 in - Variable 5.8 mph 19.6 mph N/A   Clear
3:00 PM 77.0 °F 55.4 °F 47% 30.06 in - SSE 8.1 mph - N/A   Clear
3:30 PM 75.2 °F 57.2 °F 53% 30.04 in - South 11.5 mph - N/A   Clear
4:00 PM 75.2 °F 57.2 °F 53% 30.04 in - South 12.7 mph - N/A   Clear
4:30 PM 77.0 °F 55.4 °F 47% 30.04 in - South 10.4 mph - N/A   Clear
5:00 PM 75.2 °F 53.6 °F 47% 30.01 in - South 12.7 mph - N/A   Clear
5:30 PM 75.2 °F 55.4 °F 50% 30.01 in - South 12.7 mph - N/A   Clear
6:00 PM 75.2 °F 57.2 °F 53% 30.01 in - South 12.7 mph - N/A   Clear
6:30 PM 73.4 °F 55.4 °F 53% 30.01 in - South 12.7 mph - N/A   Clear
7:00 PM 73.4 °F 55.4 °F 53% 30.01 in - SSE 10.4 mph - N/A   Clear
7:30 PM 71.6 °F 55.4 °F 57% 30.01 in - South 10.4 mph - N/A   Clear
8:00 PM 70 °F 54 °F 46% 30.01 in 34 mi SSE 10.4 mph - -   Clear
8:00 PM 69.8 °F 53.6 °F 56% 30.01 in - SSE 10.4 mph - N/A   Clear
8:30 PM 68.0 °F 53.6 °F 60% 30.01 in - SSE 10.4 mph - N/A   Clear
9:00 PM 64.4 °F 53.6 °F 68% 30.01 in - SSE 9.2 mph - N/A   Clear
9:30 PM 64.4 °F 53.6 °F 68% 30.04 in - SSE 9.2 mph - N/A   Clear
10:00 PM 62.6 °F 53.6 °F 72% 30.04 in - SSE 8.1 mph - N/A   Clear
10:30 PM 60.8 °F 53.6 °F 77% 30.06 in - SSE 6.9 mph - N/A   Clear
11:00 PM 60.8 °F 53.6 °F 77% 30.06 in - SSE 5.8 mph - N/A   Clear